User: anonymous   Login
Location: Observatorio Las Palmas
(29.0667°N, 110.9333°W)
Time: 21:37:13
(UTC-07:00)
Language:

Skynet4D Del rocket - Orbit

View from above orbital plane
View from above orbital plane
View from above satellite
View from above satellite

Ground track
Ground track

The orbit data is extracted from the following two-line orbital elements,

1 25135U 98002B   15214.23008891  .00000146  00000-0  31778-4 0  9990
2 25135 026.8824 183.9688 0356557 032.3746 095.6579 13.62310362875049
Epoch (UTC): 02 August 2015 05:31:19
Eccentricity: 0.0356557
inclination: 26.8824°
perigee height: 763 km
apogee height: 1291 km
right ascension of ascending node: 183.9688°
argument of perigee: 32.3746°
revolutions per day: 13.62310362
mean anomaly at epoch: 95.6579°
orbit number at epoch: 87504

The dashed part of the orbit path shows where the satellite is in the earth's shadow,  

DLR